Flag for Canada Weather past 2 weeks in Brampton, Ontario, Canada

Now
70 °F

Fog.


Feels Like: 70 °F
Forecast: 64 / 80 °F
Wind: 3 mph from Southeast

Location: Toronto Pearson International Airport

Current Time: Sep 1, 2014 at 11:07:18 AM

Latest Report: Sep 1, 2014 at 10:00 AM


Visibility: 2 mi

Pressure: 29.94 "Hg

Humidity: 94%

Dew point: 68 °F

Location of BramptonLocation

Historic Weather in Brampton — Graph

°F

Brampton temperature yesterday

Maximum temperature yesterday: 84 °F (at 3:00 PM)
Minimum temperature yesterday: 73 °F (at 6:00 AM)
Average temperature yesterday: 78 °F

Past Weeks' High & Low Weather Summary

 TemperatureHumidityPressure
High88 °F (Aug 26, 2:00 PM)100% (Aug 21, 6:49 AM)30.20 "Hg (Aug 21, 6:49 AM)
Low54 °F (Aug 18, 6:00 AM)33% (Aug 28, 3:00 PM)29.83 "Hg (Aug 20, 2:00 AM)
Average69 °F73%30.01 "Hg
* Reported Aug 17 10:00 AM — Sep 1 10:00 AM, Brampton, Weather by CustomWeather, © 2014

Note: Actual official high and low records may vary slightly from our data, if they occured in-between our weather recording intervals... More about our weather records

Advertising

Brampton weather history for previous 24 hours

 ConditionsComfort  
Time TempWeatherWind HumidityBarometerVisibility
10:00 AM
Sep 1
70 °FFog.3 mph94%29.94 "Hg2 mi
9:00 AM68 °FDrizzle. Fog.3 mph94%29.95 "Hg1 mi
8:00 AM68 °FFog.6 mph88%29.95 "Hg4 mi
7:52 AM68 °FFog.6 mph88%29.95 "Hg6 mi
7:00 AM68 °FFog.5 mph83%29.96 "Hg6 mi
6:00 AM66 °FMostly cloudy.No wind88%29.96 "Hg15 mi
5:00 AM66 °FPassing clouds.3 mph88%29.96 "Hg15 mi
4:00 AM64 °FClear.3 mph88%29.96 "Hg15 mi
3:00 AM66 °FPassing clouds.2 mph88%29.95 "Hg15 mi
2:00 AM66 °FPassing clouds.No wind88%29.95 "Hg15 mi
1:00 AM68 °FPassing clouds.6 mph83%29.95 "Hg15 mi
12:00 AM70 °FPassing clouds.6 mph83%29.94 "Hg15 mi
11:00 PM
Aug 31
73 °FPassing clouds.7 mph74%29.94 "Hg15 mi
10:00 PM75 °FPassing clouds.6 mph69%29.93 "Hg15 mi
9:00 PM75 °FPassing clouds.7 mph65%29.93 "Hg15 mi
8:00 PM79 °FPassing clouds.12 mph61%29.93 "Hg15 mi
7:00 PM81 °FPassing clouds.13 mph58%29.91 "Hg15 mi
6:00 PM84 °FPartly sunny.14 mph48%29.91 "Hg15 mi
5:00 PM84 °FPartly sunny.18 mph51%29.89 "Hg15 mi
4:00 PM84 °FBroken clouds.15 mph51%29.89 "Hg15 mi
3:00 PM84 °FPartly sunny.20 mph51%29.90 "Hg15 mi
2:00 PM81 °FPartly sunny.15 mph54%29.90 "Hg15 mi
1:00 PM81 °FPartly sunny.16 mph58%29.90 "Hg15 mi
12:00 PM81 °FPartly sunny.14 mph62%29.90 "Hg15 mi
11:00 AM79 °FBroken clouds.14 mph65%29.92 "Hg15 mi
Weather by CustomWeather, © 2014

See weather overviewHow to use our weather pages